Location: ??????????
(54.8537°N, 38.8755°E)
Time: 23:03:42
(UTC+00:00)

Transit 2A Rocket - Pass Details

Date: 21 September 2024
Orbit: 582 x 908 km, 66.7° (Epoch: 09 October)

Event Time Altitude Azimuth Distance (km) Brightness Sun altitude
Exits shadow 00:18:12 - 302° (WNW) 2,967 7.9 -23.4°
Reaches altitude 10° 00:19:24 10° 308° (NW) 2,598 7.6 -23.3°
Maximum altitude 00:24:28 27° 5° (N) 1,661 7.1 -22.7°
Drops below altitude 10° 00:29:22 10° 62° (ENE) 2,502 8.8 -22.2°
Sets 00:32:10 0° 74° (ENE) 3,390 9.6 -21.8°
